Location: Janeiro
(34.9957°N, 76.7652°W)
Time: 11:36:08
(UTC+00:00)

IRS-1C Rocket - Pass Details

Date: 14 December 2019
Orbit: 800 x 806 km, 99.0° (Epoch: 27 January)

Event Time Altitude Azimuth Distance (km) Brightness Sun altitude
Rises 22:41:01 0° 169° (S) 3,303 7.4 -9.1°
Reaches altitude 10° 22:43:21 10° 170° (S) 2,376 6.7 -9.5°
Maximum altitude 22:48:36 77° 257° (WSW) 828 4.3 -10.5°
Drops below altitude 10° 22:53:53 10° 343° (NNW) 2,387 6.5 -11.5°
Sets 22:56:13 0° 345° (NNW) 3,320 7.2 -12.0°
